Погода в Небеле

Россия / Иркутская область     56°21′08″N   107°06′19″E
темп.,
°C
ветер,
м/с
пор.,
м/с
влажн.,
%
обл.,
%
осадки,
мм/ч
давл.,
гПа
погр.,
м
10 мая, пн
пн1023:000сз1199100 0.0 101210
02:00−2зсз1198100 0.0 101212
05:00−2сз219992 0.0 101315
08:00+3ссз24885 0.0 1012307
11:00+7с357510 0.0 10121014
14:00+9ссв466097 0.1 10121791
17:00+9ссв366135 0.4 10121609
20:00+3ссз239083 0.8 101555
11 мая, вт
вт1123:000зсз22958 0.0 101724
02:00−1зсз229722 0.0 101834
05:00−2зсз229961 0.0 101846
08:00+2ссз2796100 0.0 1018461
11:00+3ссз3684100 0.1 1019883
14:00+3ссз3581100 0.1 1019735
17:00+2ссз3580100 0.1 1019709
20:00+1ссз238691 0.1 101984
12 мая, ср
ср1223:00−2сз229877 0.0 102033
02:00−2ссз149460 0.1 1019304
05:00−4сз229963 0.0 101960
08:00−2ссз358799 0.1 1019580
11:00+1с3470100 0.4 10181099
14:00+4ссз4452100 1.3 10151665
17:00+3с4658100 1.1 10151413
20:000ссз2577100 1.8 1017165
13 мая, чт
чт1323:00−2сз22895 0.1 101828
02:00−4зсз229418 0.1 101935
05:00−5зсз22955 0.0 102052
08:000ссз37745 0.0 1019658
11:00+4с4651100 0.1 10181885
14:00+5с4644100 0.1 10171854
17:00+7с463998 0.0 10162029
20:00+3ссз22605 0.0 101714
14 мая, пт
пт1423:00−1з22675 0.0 101911
02:00−1зюз22693 0.0 101913
05:00−2зюз22675 0.0 101920
08:00+5зюз2346100 0.0 1017335
11:00+8зюз233497 0.0 10141727
14:00+11ююз352978 0.0 10112125
17:00+12юз46255 0.0 10082383
20:00+7ю254526 0.0 100773